Location: Praha
(50.0830°N, 14.4670°E)
Time: 15:17:55
(UTC+02:00)

ISS - Pass Details

Date: 01 October 2019
Orbit: 411 x 421 km, 51.6° (Epoch: 18 October)

Event Time Altitude Azimuth Distance (km) Brightness Sun altitude
Rises 20:32:16 0° 285° (WNW) 2,347 1.8 -18.4°
Reaches altitude 10° 20:34:21 10° 285° (WNW) 1,483 0.3 -18.7°
Maximum altitude 20:37:41 85° 197° (SSW) 418 -3.9 -19.2°
Enters shadow 20:37:50 80° 134° (SE) 423 -4.0 -19.3°
